Anchorage Merrill, AK

7:07 AM AKST on February 20, 2018 (GMT -0900)
Merrill

Weather History for PAMR - July, 2013

Change the Weather History Date:

Saturday, July 27, 2013

  Actual Average Record
Temperature  
Mean Temperature 67 °F -  
Max Temperature 73 °F 66 °F 77 °F (1997)
Min Temperature 61 °F 52 °F 48 °F (2002)
Cooling Degree Days 2    
Growing Degree Days 17 (Base 50)    
Moisture  
Dew Point 56 °F    
Average Humidity 73    
Maximum Humidity 87    
Minimum Humidity 51    
Precipitation  
Precipitation 0.00 in - - ()
Sea Level Pressure  
Sea Level Pressure 30.33 in    
Wind  
Wind Speed 4 mph (West)    
Max Wind Speed 10 mph    
Max Gust Speed -    
Visibility 10 miles    
Events      
Averages and records for this station are not official NWS values.
T = Trace of Precipitation, MM = Missing Value Source: NWS Daily Summary

Daily Weather History Graph

Daily Weather History Graph

Search for Another Location

Airport or City:

Trip Planner

Search our weather history database for the weather conditions in past years. The results will help you decide how hot, cold, wet, or windy it might be!

Date:

Astronomy

Jul. 27, 2013 Rise Set
Actual Time 5:20 AM AKDT 10:49 PM AKDT
Civil Twilight 4:08 AM AKDT 12:00 AM AKDT
Nautical Twilight 2:38 AM AKDT 1:33 AM AKDT
Astronomical Twilight Sun does not rise Sun does not rise
Moon 11:32 PM AKDT (7/27) 1:15 PM AKDT (7/27)
Length of Visible Light 19h 51m
Length of Day
17h 29m
Waning Gibbous, 69% of the Moon is Illuminated
Jul 27
Waning Gibbous
Jul 29
Last Quarter
Aug 6
New
Aug 14
First Quarter
Aug 20
Full

Hourly Weather History & Observations

Time (AKDT) Temp. Dew Point Humidity Pressure Visibility Wind Dir Wind Speed Gust Speed Precip Events Conditions
12:12 AM 62.6 °F 57.2 °F 82% 30.30 in 10.0 mi West 3.5 mph - N/A   Mostly Cloudy
12:53 AM 62.1 °F 57.9 °F 86% 30.31 in 10.0 mi NW 3.5 mph - N/A   Mostly Cloudy
1:53 AM 62.1 °F 57.0 °F 84% 30.32 in 10.0 mi Calm Calm - N/A   Mostly Cloudy
2:53 AM 63.0 °F 59.0 °F 87% 30.32 in 10.0 mi SSW 3.5 mph - N/A   Mostly Cloudy
3:53 AM 63.0 °F 55.9 °F 78% 30.33 in 10.0 mi SW 3.5 mph - N/A   Overcast
4:53 AM 62.1 °F 57.0 °F 84% 30.33 in 10.0 mi Calm Calm - N/A   Overcast
5:53 AM 62.1 °F 55.0 °F 78% 30.33 in 10.0 mi West 4.6 mph - N/A   Mostly Cloudy
6:53 AM 61.0 °F 57.0 °F 87% 30.34 in 10.0 mi WNW 4.6 mph - N/A   Overcast
7:53 AM 62.1 °F 57.0 °F 84% 30.35 in 10.0 mi Calm Calm - N/A   Overcast
8:53 AM 63.0 °F 57.0 °F 81% 30.35 in 10.0 mi Variable 3.5 mph - N/A   Overcast
8:55 AM 62.6 °F 57.2 °F 82% 30.35 in 10.0 mi WNW 4.6 mph - N/A   Overcast
9:53 AM 62.1 °F 57.0 °F 84% 30.35 in 10.0 mi NW 3.5 mph - N/A   Overcast
10:53 AM 64.9 °F 55.0 °F 70% 30.36 in 10.0 mi Variable 3.5 mph - N/A   Overcast
11:53 AM 66.9 °F 55.0 °F 66% 30.36 in 10.0 mi West 5.8 mph - N/A   Mostly Cloudy
12:53 PM 68.0 °F 54.0 °F 61% 30.36 in 10.0 mi West 6.9 mph - N/A   Mostly Cloudy
1:53 PM 71.1 °F 55.0 °F 57% 30.35 in 10.0 mi WNW 6.9 mph - N/A   Scattered Clouds
2:53 PM 73.0 °F 54.0 °F 51% 30.34 in 10.0 mi WSW 5.8 mph - N/A   Scattered Clouds
3:53 PM 73.0 °F 55.0 °F 53% 30.33 in 10.0 mi West 6.9 mph - N/A   Scattered Clouds
4:53 PM 72.0 °F 55.0 °F 55% 30.32 in 10.0 mi WNW 9.2 mph - N/A   Clear
5:53 PM 70.0 °F 55.9 °F 61% 30.32 in 10.0 mi West 9.2 mph - N/A   Partly Cloudy
6:53 PM 69.1 °F 55.9 °F 63% 30.30 in 10.0 mi West 10.4 mph - N/A   Clear
7:53 PM 68.0 °F 55.0 °F 63% 30.30 in 10.0 mi West 9.2 mph - N/A   Scattered Clouds
8:53 PM 66.0 °F 55.0 °F 68% 30.30 in 10.0 mi West 9.2 mph - N/A   Clear
9:53 PM 64.0 °F 55.9 °F 75% 30.30 in 10.0 mi West 4.6 mph - N/A   Clear
10:53 PM 64.0 °F 57.0 °F 78% 30.30 in 10.0 mi Calm Calm - N/A   Clear
11:53 PM 63.0 °F 57.0 °F 81% 30.31 in 10.0 mi Calm Calm - N/A   Scattered Clouds